{"data":{"norad_id":53082,"intl_designator":"2022-077AR","name":"STARLINK-4321","alt_names":[],"object_type":"PAYLOAD","status":"ACTIVE","operator":null,"country":"US","launch_date":"2022-07-11","launch_site_code":"AFWTR","launch_vehicle":null,"mission":null,"orbit_class":"UNKNOWN","rcs_meters":null,"size_class":null,"mass_kg":null,"dimensions":null,"purposes":["comms"],"wikipedia_slug":null,"has_3d_model":false,"image_url":null,"decayed_at":null,"tle_current":{"epoch":"2026-05-25T02:11:06.287136Z","epoch_age_seconds":61173,"freshness":"FRESH","line1":"1 53082U 22077AR  26145.09104499  .00004868  00000+0  34141-3 0  9991","line2":"2 53082  97.4465 324.9631 0001082  78.2075 281.9274 15.05628655212408","mean_motion":15.05628655,"eccentricity":0.0001082,"inclination_deg":97.4465,"raan_deg":324.9631,"arg_perigee_deg":78.2075,"mean_anomaly_deg":281.9274,"bstar":0.00034141,"rev_number":21240,"period_min":95.641112781558,"perigee_km":548.82704986934,"apogee_km":550.32620709854,"semimajor_km":6927.7136284839,"source":"CELESTRAK","updated_at":"2026-05-25T13:38:17.314114Z"}}}